| time (UTC) | temp C | wind direction | speed KPH | gust KPH | rain 1hr cm | rain 24hr cm | rain mn cm | humidity % | barometer mb |
| 20260502224548 | 16 | 127 | 8.0 | 16.1 | 0.00 | 0.00 | 0.00 | 23 | 1027.3 |
| 20260502223047 | 16 | 140 | 6.4 | 19.3 | 0.00 | 0.00 | 0.00 | 24 | 1027.4 |
| 20260502221546 | 16 | 125 | 3.2 | 20.9 | 0.00 | 0.00 | 0.00 | 24 | 1027.8 |
| 20260502220045 | 16 | 138 | 6.4 | 17.7 | 0.00 | 0.00 | 0.00 | 24 | 1028.0 |
| 20260502214544 | 16 | 128 | 3.2 | 17.7 | 0.00 | 0.00 | 0.00 | 26 | 1028.3 |
| 20260502213045 | 16 | 113 | 4.8 | 14.5 | 0.00 | 0.00 | 0.00 | 25 | 1028.8 |
| 20260502211547 | 15 | 130 | 9.7 | 17.7 | 0.00 | 0.00 | 0.00 | 26 | 1029.0 |
| 20260502210043 | 15 | 128 | 4.8 | 17.7 | 0.00 | 0.00 | 0.00 | 26 | 1029.3 |
| 20260502204540 | 15 | 110 | 8.0 | 16.1 | 0.00 | 0.00 | 0.00 | 27 | 1029.5 |
| 20260502203038 | 15 | 119 | 4.8 | 12.9 | 0.00 | 0.00 | 0.00 | 27 | 1029.8 |
| 20260502201538 | 15 | 117 | 11.3 | 16.1 | 0.00 | 0.00 | 0.00 | 27 | 1029.9 |
| 20260502200036 | 15 | 88 | 4.8 | 20.9 | 0.00 | 0.00 | 0.00 | 29 | 1029.9 |
| 20260502194534 | 15 | 133 | 6.4 | 16.1 | 0.00 | 0.00 | 0.00 | 28 | 1030.0 |
| 20260502193035 | 14 | 107 | 3.2 | 17.7 | 0.00 | 0.00 | 0.00 | 28 | 1030.2 |
| 20260502191532 | 14 | 108 | 6.4 | 20.9 | 0.00 | 0.00 | 0.00 | 27 | 1030.5 |
| 20260502190033 | 13 | 101 | 6.4 | 17.7 | 0.00 | 0.00 | 0.00 | 27 | 1030.9 |
| 20260502184542 | 13 | 66 | 9.7 | 20.9 | 0.00 | 0.00 | 0.00 | 27 | 1031.1 |
| 20260502183029 | 14 | 135 | 4.8 | 20.9 | 0.00 | 0.00 | 0.00 | 28 | 1031.1 |
| 20260502181527 | 13 | 115 | 4.8 | 17.7 | 0.00 | 0.00 | 0.00 | 27 | 1031.3 |
| 20260502163019 | 12 | 254 | 1.6 | 8.0 | 0.00 | 0.03 | 0.00 | 23 | 1032.4 |
| 20260502161515 | 11 | 161 | 1.6 | 6.4 | 0.00 | 0.03 | 0.00 | 28 | 1032.5 |
| 20260502151510 | 10 | 284 | 4.8 | 12.9 | 0.00 | 0.08 | 0.00 | 29 | 1032.9 |
| 20260502123044 | 3 | 116 | 0.0 | 0.0 | 0.00 | 0.08 | 0.00 | 45 | 1033.1 |
| 20260502121553 | 3 | 116 | 0.0 | 4.8 | 0.00 | 0.08 | 0.00 | 44 | 1032.8 |
| 20260502114541 | 5 | 307 | 0.0 | 4.8 | 0.00 | 0.08 | 0.00 | 38 | 1032.8 |
| 20260502113039 | 5 | 268 | 1.6 | 8.0 | 0.00 | 0.08 | 0.00 | 37 | 1032.8 |
| 20260502111538 | 5 | 287 | 3.2 | 11.3 | 0.00 | 0.08 | 0.00 | 38 | 1032.8 |
| 20260502110037 | 5 | 271 | 1.6 | 9.7 | 0.00 | 0.08 | 0.00 | 38 | 1032.9 |
| 20260502104543 | 5 | 225 | 3.2 | 8.0 | 0.00 | 0.08 | 0.00 | 37 | 1033.0 |
| 20260502103048 | 5 | 284 | 3.2 | 11.3 | 0.00 | 0.08 | 0.00 | 37 | 1033.1 |
| 20260502101545 | 5 | 281 | 1.6 | 8.0 | 0.00 | 0.08 | 0.00 | 38 | 1033.1 |
| 20260502071514 | 5 | 285 | 1.6 | 6.4 | 0.00 | 0.08 | 0.00 | 38 | 1033.9 |
| 20260502070019 | 5 | 296 | 3.2 | 6.4 | 0.00 | 0.08 | 0.00 | 36 | 1033.9 |
| 20260502064525 | 5 | 319 | 0.0 | 8.0 | 0.00 | 0.08 | 0.08 | 36 | 1033.9 |
| 20260502063011 | 6 | 297 | 1.6 | 8.0 | 0.00 | 0.08 | 0.08 | 35 | 1033.8 |
| 20260502061509 | 6 | 339 | 3.2 | 9.7 | 0.00 | 0.08 | 0.08 | 34 | 1033.8 |
| 20260502060010 | 6 | 315 | 1.6 | 11.3 | 0.00 | 0.08 | 0.08 | 34 | 1033.7 |
| 20260502054508 | 5 | 307 | 1.6 | 4.8 | 0.00 | 0.08 | 0.08 | 37 | 1033.7 |
| 20260502053008 | 5 | 271 | 1.6 | 4.8 | 0.00 | 0.08 | 0.08 | 39 | 1033.6 |
| 20260502051509 | 5 | 266 | 1.6 | 4.8 | 0.00 | 0.08 | 0.08 | 39 | 1033.6 |
| 20260502050007 | 5 | 282 | 1.6 | 3.2 | 0.00 | 0.08 | 0.08 | 40 | 1033.6 |
| 20260502044507 | 5 | 278 | 1.6 | 4.8 | 0.00 | 0.08 | 0.08 | 40 | 1033.6 |
| 20260502043009 | 5 | 269 | 1.6 | 3.2 | 0.00 | 0.08 | 0.08 | 40 | 1033.7 |
| 20260502041506 | 5 | 278 | 1.6 | 4.8 | 0.00 | 0.08 | 0.08 | 40 | 1033.6 |
| 20260502040011 | 5 | 268 | 1.6 | 1.6 | 0.00 | 0.08 | 0.08 | 41 | 1033.6 |
| 20260502034505 | 5 | 268 | 1.6 | 3.2 | 0.00 | 0.08 | 0.08 | 40 | 1033.5 |
| 20260502033005 | 5 | 271 | 1.6 | 3.2 | 0.00 | 0.08 | 0.08 | 41 | 1033.5 |
| 20260502031504 | 5 | 278 | 0.0 | 4.8 | 0.00 | 0.08 | 0.08 | 40 | 1033.5 |
| 20260502030004 | 5 | 271 | 1.6 | 3.2 | 0.00 | 0.08 | 0.08 | 41 | 1033.3 |
| 20260502024503 | 5 | 270 | 1.6 | 3.2 | 0.00 | 0.10 | 0.08 | 41 | 1033.1 |
| 20260502023007 | 5 | 268 | 0.0 | 3.2 | 0.00 | 0.10 | 0.08 | 42 | 1032.8 |
| 20260502021502 | 6 | 268 | 0.0 | 3.2 | 0.00 | 0.10 | 0.08 | 41 | 1032.8 |
| 20260502020002 | 6 | 275 | 0.0 | 1.6 | 0.00 | 0.10 | 0.08 | 41 | 1032.8 |
| 20260502014502 | 7 | 276 | 0.0 | 3.2 | 0.00 | 0.15 | 0.08 | 41 | 1032.6 |
| 20260502013001 | 7 | 273 | 0.0 | 1.6 | 0.00 | 0.15 | 0.08 | 38 | 1032.4 |
| 20260502011611 | 8 | 88 | 0.0 | 1.6 | 0.00 | 0.15 | 0.08 | 37 | 1032.4 |
| 20260502010059 | 10 | 143 | 0.0 | 1.6 | 0.00 | 0.15 | 0.08 | 35 | 1032.4 |
| 20260502004607 | 12 | 103 | 0.0 | 3.2 | 0.00 | 0.18 | 0.08 | 33 | 1032.4 |
| 20260502003058 | 12 | 126 | 0.0 | 4.8 | 0.00 | 0.18 | 0.08 | 35 | 1032.4 |
| 20260502001555 | 11 | 22 | 0.0 | 3.2 | 0.00 | 0.18 | 0.08 | 35 | 1032.3 |
| 20260502000110 | 10 | 107 | 1.6 | 4.8 | 0.00 | 0.18 | 0.08 | 38 | 1032.4 |
| 20260501234552 | 9 | 77 | 0.0 | 4.8 | 0.00 | 0.18 | 0.08 | 42 | 1032.3 |
| 20260501233052 | 10 | 286 | 0.0 | 4.8 | 0.00 | 0.18 | 0.08 | 39 | 1032.2 |
| 20260501231553 | 10 | 100 | 0.0 | 3.2 | 0.00 | 0.18 | 0.08 | 41 | 1032.2 |
| 20260501230046 | 10 | 343 | 0.0 | 3.2 | 0.00 | 0.18 | 0.08 | 40 | 1032.3 |